Weather History for Lancaster, PA

Change the Weather History Date:

Sunday, May 5, 2013

  Actual Average Record
Temperature  
Mean Temperature 52 °F -  
Max Temperature 64 °F 68 °F 91 °F (1949)
Min Temperature 39 °F 45 °F 34 °F (2005)
Degree Days  
Heating Degree Days 14    
Growing Degree Days 2 (Base 50)    
Moisture  
Dew Point 38 °F    
Average Humidity 64    
Maximum Humidity 87    
Minimum Humidity 41    
Precipitation  
Precipitation 0.00 in - - ()
Sea Level Pressure  
Sea Level Pressure 30.23 in    
Wind  
Wind Speed 4 mph (ESE)    
Max Wind Speed 13 mph    
Max Gust Speed 16 mph    
Visibility 9 miles    
Events      
Averages and records for this station are not official NWS values.
T = Trace of Precipitation, MM = Missing Value Source: NWS Daily Summary

Daily Weather History Graph

Daily Weather History Graph

Search for Another Location

Airport:

Trip Planner

Search our weather history database for the weather conditions in past years. The results will help you decide how hot, cold, wet, or windy it might be!

Date:

Astronomy

May. 05, 2013 Rise Set
Actual Time 5:59 AM EDT 8:04 PM EDT
Civil Twilight 5:30 AM EDT 8:34 PM EDT
Nautical Twilight 4:53 AM EDT 9:10 PM EDT
Astronomical Twilight 4:14 AM EDT 9:50 PM EDT
Moon 3:29 AM EDT (5/5) 4:01 PM EDT (5/5)
Length of Visible Light 15h 04m
Length of Day
14h 04m
Waning Crescent, 18% of the Moon is Illuminated
May 5
Waning Crescent
May 9
New
May 18
First Quarter
May 25
Full
May 31
Last Quarter

Hourly Weather History & Observations

Time (EDT) Temp. Windchill Dew Point Humidity Pressure Visibility Wind Dir Wind Speed Gust Speed Precip Events Conditions
12:53 AM 46.9 °F - 39.9 °F 77% 30.26 in 10.0 mi Calm Calm - N/A   Clear
1:53 AM 46.0 °F - 39.0 °F 76% 30.25 in 10.0 mi Calm Calm - N/A   Clear
2:53 AM 42.1 °F 38.4 °F 36.0 °F 79% 30.24 in 10.0 mi East 5.8 mph - N/A   Clear
3:53 AM 41.0 °F 37.1 °F 36.0 °F 82% 30.24 in 10.0 mi East 5.8 mph - N/A   Clear
4:53 AM 39.9 °F 36.7 °F 35.1 °F 83% 30.25 in 10.0 mi East 4.6 mph - N/A   Clear
5:53 AM 39.9 °F 37.8 °F 36.0 °F 86% 30.25 in 9.0 mi East 3.5 mph - N/A   Partly Cloudy
6:45 AM 41.0 °F - 37.4 °F 87% 30.26 in 7.0 mi Calm Calm - N/A   Mostly Cloudy
6:53 AM 42.1 °F 40.2 °F 37.9 °F 85% 30.26 in 7.0 mi East 3.5 mph - N/A   Mostly Cloudy
7:53 AM 44.1 °F 40.1 °F 37.9 °F 79% 30.27 in 8.0 mi East 6.9 mph - N/A   Overcast
8:53 AM 46.9 °F - 37.9 °F 71% 30.28 in 9.0 mi East 5.8 mph - N/A   Mostly Cloudy
9:53 AM 50.0 °F - 39.0 °F 66% 30.27 in 9.0 mi East 9.2 mph - N/A   Mostly Cloudy
10:15 AM 51.8 °F - 37.4 °F 58% 30.26 in 9.0 mi East 6.9 mph - N/A   Scattered Clouds
10:53 AM 53.1 °F - 39.0 °F 59% 30.26 in 8.0 mi East 6.9 mph - N/A   Clear
11:53 AM 57.0 °F - 37.9 °F 49% 30.24 in 9.0 mi ESE 9.2 mph - N/A   Clear
12:53 PM 59.0 °F - 39.0 °F 48% 30.22 in 10.0 mi East 9.2 mph 16.1 mph N/A   Clear
2:53 PM 63.0 °F - 39.9 °F 43% 30.19 in 10.0 mi ESE 6.9 mph - N/A   Clear
3:53 PM 64.0 °F - 41.0 °F 43% 30.17 in 10.0 mi ESE 6.9 mph 16.1 mph N/A   Clear
4:53 PM 64.9 °F - 41.0 °F 42% 30.16 in 10.0 mi SSE 10.4 mph - N/A   Clear
5:53 PM 63.0 °F - 39.0 °F 41% 30.16 in 10.0 mi SSE 12.7 mph - N/A   Clear
6:53 PM 61.0 °F - 37.9 °F 42% 30.17 in 10.0 mi SE 9.2 mph - N/A   Clear
7:53 PM 55.9 °F - 37.9 °F 51% 30.18 in 10.0 mi SE 6.9 mph - N/A   Clear
8:53 PM 53.1 °F - 37.9 °F 57% 30.20 in 10.0 mi SE 5.8 mph - N/A   Clear
9:53 PM 50.0 °F - 37.9 °F 63% 30.21 in 10.0 mi ESE 5.8 mph - N/A   Clear
10:53 PM 48.0 °F - 39.0 °F 71% 30.21 in 10.0 mi Calm Calm - N/A   Clear
11:53 PM 46.9 °F - 37.9 °F 71% 30.20 in 10.0 mi SE 4.6 mph - N/A   Clear